This demonstration page uses our WeatherBlox Daily Observations layout. Learn more.

Left ArrowRight Arrow

31.31129, -92.44514

Hourly Observations for August 13, 2022

Temp ( °F °C ) Dew Point ( °F °C ) Humidity (%) Winds ( mph kmh ) Pressure ( in mb ) Visibility ( mi km ) Precip ( " mm )
12:53 am 00:53 Clear 78 25.6 73 22.8 85 85 Calm 29.97 1015 10 16 0.00 0.00
1:53 am 01:53 Clear 78 25.6 74 23.3 87 87 NNE 5 7 29.96 1014 10 16 0.00 0.00
2:53 am 02:53 Clear 78 25.6 74 23.3 87 87 ENE 6 9 29.96 1014 10 16 0.00 0.00
3:53 am 03:53 Clear 77 25 74 23.3 90 90 ENE 3 6 29.96 1015 10 16 0.00 0.00
4:53 am 04:53 Clear 77 25 73 22.8 88 88 Calm 29.98 1015 10 16 0.00 0.00
5:53 am 05:53 Mostly Cloudy 77 25 74 23.3 90 90 NE 6 9 29.99 1016 9 14 0.00 0.00
6:24 am 06:24 Mostly Clear 76 24.4 73 22.8 91 91 ENE 5 7 29.99 1016 10 16 0.00 0.00
6:53 am 06:53 Sunny 76 24.4 73 22.8 91 91 ENE 6 9 30.00 1016 9 14 0.00 0.00
7:25 am 07:25 Mostly Cloudy 77 25 73 22.8 88 88 ENE 7 11 30.00 1016 9 14 0.00 0.00
7:53 am 07:53 Mostly Cloudy 77 25 74 23.3 90 90 E 6 9 30.01 1016 8 13 0.00 0.00
8:15 am 08:15 Cloudy 78 25.6 74 23.3 87 87 E 5 7 30.01 1016 9 14 0.00 0.00
8:53 am 08:53 Cloudy 79 26.1 74 23.3 85 85 E 5 7 30.02 1017 9 14 0.00 0.00
9:53 am 09:53 Cloudy 84 28.9 73 22.8 70 70 E 9 15 30.02 1017 10 16 0.00 0.00
10:00 am 10:00 Mostly Cloudy 85 29.4 73 22.8 68 68 E 9 15 30.02 1016 10 16 0.00 0.00
10:53 am 10:53 Mostly Cloudy 86 30 72 22.2 63 63 E 9 15 30.03 1017 10 16 0.00 0.00
11:53 am 11:53 Mostly Cloudy 88 31.1 73 22.8 61 61 E 8 13 30.02 1017 10 16 0.00 0.00
12:53 pm 12:53 Mostly Cloudy 90 32.2 71 21.7 54 54 SSE 10 17 30.01 1016 10 16 0.00 0.00
1:53 pm 13:53 Mostly Sunny 91 32.8 71 21.7 52 52 SSE 10 17 29.99 1016 10 16 0.00 0.00
2:53 pm 14:53 Sunny 93 33.9 71 21.7 49 49 VRB 5 7 29.97 1015 10 16 0.00 0.00
3:53 pm 15:53 Mostly Sunny 93 33.9 71 21.7 49 49 VRB 6 9 29.96 1015 10 16 0.00 0.00
4:53 pm 16:53 Cloudy with Light Rain 86 30 74 23.3 67 67 SSE 15 24 29.96 1015 10 16 0.01 0.13
5:53 pm 17:53 Cloudy 85 29.4 73 22.8 68 68 SSE 9 15 29.98 1015 7 11 0.01 0.25
6:29 pm 18:29 Cloudy with Heavy Rain 80 26.7 75 23.9 85 85 S 7 11 29.97 1015 2 3 0.08 2.03
6:38 pm 18:38 Cloudy with Light Rain 80 26.7 75 23.9 85 85 SE 3 6 29.98 1015 3 5 0.09 2.29
6:53 pm 18:53 Cloudy with Light Rain 79 26.1 76 24.4 90 90 NE 7 11 29.98 1015 9 14 0.10 2.54
7:53 pm 19:53 Cloudy 80 26.7 76 24.4 87 87 E 3 6 29.98 1015 10 16 0.01 0.13
8:53 pm 20:53 Partly Cloudy 80 26.7 75 23.9 85 85 SSE 6 9 29.97 1015 10 16 0.00 0.00
9:53 pm 21:53 Clear 79 26.1 74 23.3 85 85 SSE 6 9 29.97 1015 10 16 0.00 0.00
10:53 pm 22:53 Clear 78 25.6 73 22.8 85 85 SSE 3 6 29.98 1015 10 16 0.00 0.00
11:53 pm 23:53 Clear 78 25.6 73 22.8 85 85 Calm 29.98 1015 10 16 0.00 0.00

Powered by AerisWeather